Regional Weather Roundup
Issued by NWS Midland/Odessa, TX

Skip options and go directly to product.
Home | Oldest Version | Previous Version | Current Version | All | Graphics & Text | Save Text | Print | Product List | Glossary On

Skip product version selection by date and time.   
217
ASUS44 KMAF 261010
RWRMAF
MIDLAND AREA WEATHER ROUNDUP
NATIONAL WEATHER SERVICE MIDLAND TX
500 AM CDT MON SEP 26 2016

...IN SOUTHWEST TEXAS AND SOUTHEAST NEW MEXICO...

CITY           SKY/WX    TMP DP  RH WIND       PRES   REMARKS
ALPINE         CLOUDY    56  55  98 NE9       30.31R
ANDREWS        NOT AVBL
ARTESIA        CLOUDY    57  46  67 N12       30.33F
BIG SPRING     CLOUDY    61  50  66 NE14      30.25S
CARLSBAD       CLOUDY    61  48  62 N7        30.29F
DRYDEN           N/A     64  62  93 N14       30.11F
FORT STOCKTON  LGT RAIN  56  56 100 NE14      30.23R FOG
GUAD PASS      LGT RAIN  49  49 100 NE41G51   30.28R VSB 1/2 WCI  39
HOBBS          CLOUDY    59  45  58 NE13      30.32S
MARFA          CLOUDY   N/A N/A N/A N18       30.26S
MIDLAND AIRPK  CLOUDY    62  47  58 NE16G23   30.25S
MIDLAND INTL   CLOUDY    62  46  55 NE20G29   30.23F
ODESSA         CLOUDY    61  46  57 NE16      30.25S
PECOS          CLOUDY    58  57  97 CALM      30.23R
PRESIDIO       CLOUDY    66  58  75 N9        30.13F
SEMINOLE       CLOUDY    57  48  73 NE8       30.30F
SNYDER           N/A     60  51  69 CALM      30.24S
WINK           CLOUDY    61  50  67 NE13G22   30.23F
$$
...OTHER STATIONS IN TEXAS...

CITY           SKY/WX    TMP DP  RH WIND       PRES   REMARKS
ABILENE        CLOUDY    60  57  89 N9        30.21R
AMARILLO       CLEAR     48  41  76 NW7       30.36F
AUSTIN         RAIN      73  73 100 N10       30.02F FOG
BROWNSVILLE    CLOUDY    77  74  90 SE3       29.92S
CORPUS CHRISTI RAIN      75  74  96 E14       29.98R
DALLAS FTW     CLOUDY    68  60  75 N15       30.11R
DEL RIO        HVY RAIN  70  69  97 N6        30.03S FOG
EL PASO        CLOUDY    64  37  36 NE13      30.25F
HOUSTON INT    CLOUDY    73  72  96 N6        30.00F
LUBBOCK        CLOUDY    58  48  69 NE10      30.30F
SAN ANGELO     CLOUDY    62  59  90 NE10      30.16S
SAN ANTONIO    LGT RAIN  72  70  93 CALM      30.02S
WACO           LGT RAIN  71  70  96 N14G20    30.06F
WICHITA FALLS  NOT AVBL
$$
...OTHER LOCATIONS IN NEW MEXICO...

CITY           SKY/WX    TMP DP  RH WIND       PRES   REMARKS
ALAMAGORDO     CLOUDY    66  34  30 E17G23    30.27S
ALBUQUERQUE    CLEAR     55  33  43 E12       30.45R
CANNON AFB     PTCLDY    49  42  77 NE10      30.37S
CLOVIS         CLEAR     45  37  76 N8        30.37S
HOLLOMAN AFB   PTCLDY    66  40  38 E10       30.25S
ROSWELL        PTCLDY    57  45  64 NE6       30.35S
RUIDOSO        CLOUDY    46  37  71 SE8       30.47F
SANTA FE       CLEAR     46  32  58 S7        30.47R
TRUTH OR CONSE CLOUDY    61  39  44 NE13      30.33S
TUCUMCARI      CLEAR     49  34  56 N10       30.39S
$$

USA.gov is the U.S. government's official web portal to all federal, state and local government web resources and services.